Tracking 19817 objects as of 19-Aug-2019
HD Live streaming from Space Station
objects crossing your sky now

METEOR 2-5 DEB

Track METEOR 2-5 DEB now!
10-day predictions


NORAD ID: 36923
Int'l Code: 1979-095BQ
Perigee: 808.3 km
Apogee: 842.5 km
Inclination: 81.2 °
Period: 101.3 minutes
Semi major axis: 7196 km
RCS: 0.0003 m2 (small)
Launch date: October 31, 1979
Source: Commonwealth of Independent States (former USSR) (CIS)
Launch site: PLESETSK MISSILE AND SPACE COMPLEX (PKMTR)

Note: This is SATELLITE DEBRIS
aabbcc
Your satellite tracking list
Your tracking list is empty




NASA's NSSDC Master Catalog

Two Line Element Set (TLE):
1 36923U 79095BQ  19225.94723593  .00000135  00000-0  55013-4 0  9991
2 36923  81.2046  90.7911 0023744 295.1783  64.6932 14.22104856554094
Source of the keplerian elements: AFSPC